CZ-6A DEB, 60872

Orbit data source: Space-Track

CZ-6A DEB, 60872 is space debris in LEO originally from a launch on Tue, 06 Aug 2024 UTC launched from the Taiyaun Space Center, China (TSC). Debris objects in space refer to the collection of defunct objects orbiting the Earth. Examples of debris include non-operational satellites, rocket bodies, and fragments generated from explosions, collisions, or faulty payload assembly.

Loading next visibility...
Identifier
60872, 2024-140KB
Orbit
LEO
Country
Flag of CNCN / PRC
Related business
Manufacturer
SAST
Mission
Spacecraft
Bus & Motor
Unknown
Mass
Unknown
Launch date (UTC)
2024-08-06 (2 years ago)
Launch vehicle
Unknown
Launch site
Taiyaun Space Center, China (TSC)
Object type
Payload
Rocket body
Debris
Shape & HBR
Unknown shape, 0.3 m
Radar Cross Section
Medium (>0.1 m² and <1 m²)

Expand to show TLE details & history
Last TLE update: 14 hours ago

TLE from 14 hours ago
0 CZ-6A DEB
1 60872U 24140KB  26171.27687183  .00000679  00000-0  27872-3 0  9994
2 60872  88.9169 266.8524 0031808 120.7671 239.6661 14.25674540 95985
Epoch: 2026-06-20T06:38Z
TLE epoch observation values (Epoch: 2026-06-20T06:38:41.726Z)
Latitude
0.00001°
Longitude
-101.31527°
Altitude
820.884 km
Speed
7.437 km/s
True Right ascension
17h 47m 24s
True Declination
0° 00' 00"
Sunlit
Object was in full shadow at epoch
Visualization orbit readout
Latitude
Unknown
Longitude
Unknown
Altitude
Unknown
Speed
Unknown
Apparent Right ascension
Unknown
Apparent Declination
Unknown
Sunlit
N/A
Visualization observer readout
Local Sidereal Time
07:20:32
Azimuth
Unknown
Elevation
Unknown
Doppler factor
Unknown
Orbital elements
Apogee altitude
826.011 km
Perigee altitude
780.327 km
Semi-major axis
7,181.306 km
Eccentricity
0.00318
Inclination
88.9169°
RAAN
266.8524°
Arg. of periapsis
120.7671°
True anomaly
239.35214°
Mean anomaly
239.6661°
Eccentric anomaly
239.50906°
Mean motion
3.56647 °/min
Orbital period
100.94 mins
BSTAR
0.00027872
Loading maneuver chart data...
Computing Atmospheric mass density...
Loading historical data...
Loading historical data...
Loading historical data...
Loading historical data...
Loading historical data...
Loading historical data...
Loading historical data...

Documentation

Showing up to 5 results
|